STARLINK-5491, 55332

Orbit data source: Space-Track

STARLINK-5491, 55332 is a payload satellite owned by SpaceX/Seattle (US) in LEO that was launched on Thu, 26 Jan 2023 UTC via an FALCON 9 launch vehicle from the Air Force Eastern Test Range (AFETR). Payload-class satellites include a variety of spacecraft equipped with specific instruments for various scientific and technological missions. These include communications satellites like Starlink; space stations such as the ISS; scientific satellites like the Hubble; Earth observation satellites from companies like Planet Labs, Umbra, and HawkEye 360; GPS; miniature CubeSats for education and research; and military/defense satellites.

Loading next visibility...
Identifier
55332, 2023-013B
Orbit
LEO
Country
Flag of USUS
Related business
Manufacturer
SpaceX/Seattle
Mission
Operational Commercial Communications
Bus & Motor
STARLINK, Unknown motor
Mass
305 kg wet, ~290 kg dry
Launch date (UTC)
2023-01-26 (3 years ago)
Launch vehicle
FALCON 9
Launch site
Air Force Eastern Test Range (AFETR)
Object type
Payload
Rocket body
Debris
Shape & HBR
Box + 1 Pan, 10.1 m
Radar Cross Section
13.562 m², Large (>1 m²)

Expand to show TLE details & history
Last TLE update: 2 days ago

TLE from 2 days ago
0 STARLINK-5491
1 55332U 23013B   26171.43802206 -.00001212  00000-0 -34522-4 0  9997
2 55332  43.0098  68.7378 0002064 260.8166  99.2452 15.27569092187557
Epoch: 2026-06-20T10:30Z
TLE epoch observation values (Epoch: 2026-06-20T10:30:45.105Z)
Latitude
-0.00006°
Longitude
2.39715°
Altitude
483.086 km
Speed
7.626 km/s
True Right ascension
04h 34m 57s
True Declination
0° 00' 00"
Sunlit
Object was in daylight at epoch
Visualization orbit readout
Latitude
Unknown
Longitude
Unknown
Altitude
Unknown
Speed
Unknown
Apparent Right ascension
Unknown
Apparent Declination
Unknown
Sunlit
N/A
Visualization observer readout
Local Sidereal Time
00:50:35
Azimuth
Unknown
Elevation
Unknown
Doppler factor
Unknown
Orbital elements
Apogee altitude
486.442 km
Perigee altitude
483.609 km
Semi-major axis
6,863.162 km
Eccentricity
0.00021
Inclination
43.0098°
RAAN
68.7378°
Arg. of periapsis
260.8166°
True anomaly
99.26854°
Mean anomaly
99.2452°
Eccentric anomaly
99.25687°
Mean motion
3.8173 °/min
Orbital period
94.31 mins
BSTAR
-0.000034522
Loading maneuver chart data...
Computing Atmospheric mass density...
Loading historical data...
Loading historical data...
Loading historical data...
Loading historical data...
Loading historical data...
Loading historical data...
Loading historical data...

Documentation

Showing up to 5 results
|